カタログに戻る

HAWK-14B

運用中科学SSO
NORAD 68436·PAYLOAD·🇺🇸 United States

打ち上げ Mar 30, 2026 から Vandenberg Space Force Base

Loading…

次のパス (今後24時間)

TLE

最新Source: Space-Track

元期: Sep 14, 2026, 07:19 UTC

1 68436U 26067W   26257.30490044  .00003547  00000-0  17352-3 0  9994
2 68436  97.4647 214.5531 0004438  92.4209 267.7534 15.18841539 25468

AllMySatでHAWK-14Bをリアルタイム追跡

Download on the App Store